Showing default

NIMBUS 2, 2173

Orbit data source: Space-Track

NIMBUS 2, 2173 is a payload satellite owned by GSFC (US) in SSO that was launched on Sun, 15 May 1966 UTC via a THOR SLV-2A AGENA B launch vehicle from the Air Force Western Test Range (AFWTR). Payload-class satellites include a variety of spacecraft equipped with specific instruments for various scientific and technological missions. These include communications satellites like Starlink; space stations such as the ISS; scientific satellites like the Hubble; Earth observation satellites from companies like Planet Labs, Umbra, and HawkEye 360; GPS; miniature CubeSats for education and research; and military/defense satellites.

Loading next visibility...
Identifier
2173, 1966-040A
Orbit
SSO
Country
Flag of USUS
Related business
Manufacturer
GE/MSVD
Mission
Non-operational spacecraft
Bus & Motor
NIMBUS, Unknown motor
Mass
414 kg wet, 414 kg dry
Launch date (UTC)
1966-05-15 (60 years ago)
Launch vehicle
THOR SLV-2A AGENA B
Launch site
Air Force Western Test Range (AFWTR)
Object type
Payload
Rocket body
Debris
Shape & HBR
Unknown
Radar Cross Section
Large (>1 m²)

Expand to show TLE details & history
Last TLE update: 10 hours ago

TLE from 10 hours ago
0 NIMBUS 2
1  2173U 66040A   26130.51387440 -.00000030  00000-0  34417-4 0  9990
2  2173 100.5347 347.9845 0055694  26.0636  32.1320 13.33716168918601
Epoch: 2026-05-10T12:19Z
TLE epoch observation values (Epoch: 2026-05-10T12:19:58.748Z)
Latitude
57.08974°
Longitude
-81.93724°
Altitude
1,106.862 km
Speed
7.322 km/s
True Right ascension
22h 05m 29s
True Declination
56° 56' 24"
Sunlit
Object was in daylight at epoch
Visualization orbit readout
Latitude
Unknown
Longitude
Unknown
Altitude
Unknown
Speed
Unknown
Apparent Right ascension
Unknown
Apparent Declination
Unknown
Sunlit
N/A
Visualization observer readout
Local Sidereal Time
06:04:20
Azimuth
Unknown
Elevation
Unknown
Doppler factor
Unknown
Orbital elements
Apogee altitude
1,171.963 km
Perigee altitude
1,088.33 km
Semi-major axis
7,508.283 km
Eccentricity
0.00557
Inclination
100.5347°
RAAN
347.9845°
Arg. of periapsis
26.0636°
True anomaly
32.47345°
Mean anomaly
32.132°
Eccentric anomaly
32.30253°
Mean motion
3.33605 °/min
Orbital period
107.91 mins
BSTAR
0.000034417
Loading maneuver chart data...
Computing Atmospheric mass density...
Loading historical data...
Loading historical data...
Loading historical data...
Loading historical data...
Loading historical data...
Loading historical data...
Loading historical data...

Documentation

Showing up to 5 results
|